Wetterdaten: Sonntag, 29.08.2021
Datum Zeit Temp. Auen Feucht Auen Luftdruck Regen Richtung Richtung Windben
29.08.2021 00:00 11,1 C 89 % 1017,7 hPa 0,0 mm W 269 4,8 km/h (1 Bft)
29.08.2021 00:05 11,1 C 89 % 1017,7 hPa 0,0 mm W 269 6,4 km/h (2 Bft)
29.08.2021 00:10 11,0 C 89 % 1017,6 hPa 0,0 mm W 269 4,8 km/h (1 Bft)
29.08.2021 00:15 11,0 C 89 % 1017,5 hPa 0,0 mm W 269 0,0 km/h (0 Bft)
29.08.2021 00:20 11,0 C 89 % 1017,6 hPa 0,0 mm W 269 0,0 km/h (0 Bft)
29.08.2021 00:25 10,9 C 89 % 1017,5 hPa 0,0 mm W 269 0,0 km/h (0 Bft)
29.08.2021 00:30 10,9 C 89 % 1017,5 hPa 0,0 mm W 269 1,6 km/h (1 Bft)
29.08.2021 00:35 10,9 C 89 % 1017,5 hPa 0,0 mm W 269 1,6 km/h (1 Bft)
29.08.2021 00:40 10,9 C 89 % 1017,5 hPa 0,0 mm W 269 0,0 km/h (0 Bft)
29.08.2021 00:45 10,8 C 89 % 1017,4 hPa 0,0 mm W 269 0,0 km/h (0 Bft)
29.08.2021 00:50 10,8 C 89 % 1017,4 hPa 0,0 mm W 269 1,6 km/h (1 Bft)
29.08.2021 00:55 10,8 C 90 % 1017,4 hPa 0,0 mm W 269 0,0 km/h (0 Bft)
29.08.2021 01:00 10,8 C 90 % 1017,4 hPa 0,0 mm W 269 0,0 km/h (0 Bft)
29.08.2021 01:05 10,8 C 89 % 1017,3 hPa 0,0 mm W 269 0,0 km/h (0 Bft)
29.08.2021 01:10 10,8 C 89 % 1017,2 hPa 0,0 mm W 269 0,0 km/h (0 Bft)
29.08.2021 01:15 10,7 C 89 % 1017,3 hPa 0,0 mm W 269 0,0 km/h (0 Bft)
29.08.2021 01:20 10,7 C 89 % 1017,2 hPa 0,0 mm W 269 0,0 km/h (0 Bft)
29.08.2021 01:25 10,7 C 90 % 1017,2 hPa 0,0 mm W 269 0,0 km/h (0 Bft)
29.08.2021 01:30 10,7 C 90 % 1017,2 hPa 0,0 mm W 269 0,0 km/h (0 Bft)
29.08.2021 01:35 10,7 C 90 % 1017,1 hPa 0,0 mm W 269 0,0 km/h (0 Bft)
29.08.2021 01:40 10,7 C 90 % 1017,1 hPa 0,0 mm W 269 0,0 km/h (0 Bft)
29.08.2021 01:45 10,7 C 90 % 1017,0 hPa 0,0 mm W 269 0,0 km/h (0 Bft)
29.08.2021 01:50 10,7 C 90 % 1017,0 hPa 0,0 mm W 269 0,0 km/h (0 Bft)
29.08.2021 01:55 10,7 C 90 % 1017,0 hPa 0,0 mm W 269 0,0 km/h (0 Bft)
29.08.2021 02:00 10,7 C 90 % 1017,0 hPa 0,0 mm W 269 0,0 km/h (0 Bft)
29.08.2021 02:05 10,7 C 90 % 1016,9 hPa 0,0 mm W 269 0,0 km/h (0 Bft)
29.08.2021 02:10 10,7 C 90 % 1016,9 hPa 0,0 mm W 269 0,0 km/h (0 Bft)
29.08.2021 02:15 10,7 C 90 % 1016,9 hPa 0,0 mm W 269 0,0 km/h (0 Bft)
29.08.2021 02:20 10,7 C 90 % 1016,9 hPa 0,0 mm W 269 0,0 km/h (0 Bft)
29.08.2021 02:25 10,7 C 90 % 1016,8 hPa 0,0 mm W 269 1,6 km/h (1 Bft)
29.08.2021 02:30 10,7 C 90 % 1016,8 hPa 0,0 mm W 269 3,2 km/h (1 Bft)
29.08.2021 02:35 10,7 C 90 % 1016,6 hPa 0,0 mm W 269 4,8 km/h (1 Bft)
29.08.2021 02:40 10,7 C 90 % 1016,7 hPa 0,0 mm W 269 4,8 km/h (1 Bft)
29.08.2021 02:45 10,7 C 90 % 1016,6 hPa 0,0 mm W 269 3,2 km/h (1 Bft)
29.08.2021 02:50 10,7 C 90 % 1016,6 hPa 0,0 mm W 269 3,2 km/h (1 Bft)
29.08.2021 02:55 10,7 C 90 % 1016,6 hPa 0,0 mm W 271 8,0 km/h (2 Bft)
29.08.2021 03:00 10,7 C 90 % 1016,6 hPa 0,0 mm W 275 6,4 km/h (2 Bft)
29.08.2021 03:05 10,7 C 90 % 1016,5 hPa 0,0 mm W 275 4,8 km/h (1 Bft)
29.08.2021 03:10 10,7 C 90 % 1016,6 hPa 0,0 mm W 265 6,4 km/h (2 Bft)
29.08.2021 03:15 10,7 C 90 % 1016,6 hPa 0,0 mm W 265 6,4 km/h (2 Bft)
29.08.2021 03:20 10,7 C 90 % 1016,5 hPa 0,0 mm W 265 4,8 km/h (1 Bft)
29.08.2021 03:25 10,7 C 90 % 1016,4 hPa 0,0 mm W 265 6,4 km/h (2 Bft)
29.08.2021 03:30 10,7 C 90 % 1016,5 hPa 0,0 mm W 265 6,4 km/h (2 Bft)
29.08.2021 03:35 10,7 C 90 % 1016,5 hPa 0,0 mm W 265 6,4 km/h (2 Bft)
29.08.2021 03:40 10,7 C 90 % 1016,6 hPa 0,0 mm W 265 6,4 km/h (2 Bft)
29.08.2021 03:45 10,7 C 90 % 1016,6 hPa 0,0 mm W 278 8,0 km/h (2 Bft)
29.08.2021 03:50 10,7 C 90 % 1016,6 hPa 0,0 mm W 276 8,0 km/h (2 Bft)
29.08.2021 03:55 10,7 C 90 % 1016,6 hPa 0,0 mm W 276 6,4 km/h (2 Bft)
29.08.2021 04:00 10,6 C 90 % 1016,5 hPa 0,0 mm W 276 4,8 km/h (1 Bft)
29.08.2021 04:05 10,6 C 91 % 1016,6 hPa 0,2 mm W 280 6,4 km/h (2 Bft)
29.08.2021 04:10 10,6 C 91 % 1016,6 hPa 0,0 mm W 265 6,4 km/h (2 Bft)
29.08.2021 04:15 10,6 C 91 % 1016,6 hPa 0,2 mm W 279 11,3 km/h (2 Bft)
29.08.2021 04:20 10,6 C 91 % 1016,6 hPa 0,0 mm W 276 8,0 km/h (2 Bft)
29.08.2021 04:25 10,6 C 90 % 1016,7 hPa 0,0 mm W 279 6,4 km/h (2 Bft)
29.08.2021 04:30 10,6 C 90 % 1016,7 hPa 0,2 mm W 261 8,0 km/h (2 Bft)
29.08.2021 04:35 10,6 C 90 % 1016,7 hPa 0,0 mm W 279 4,8 km/h (1 Bft)
29.08.2021 04:40 10,6 C 90 % 1016,7 hPa 0,2 mm W 279 4,8 km/h (1 Bft)
29.08.2021 04:45 10,6 C 90 % 1016,7 hPa 0,0 mm W 279 1,6 km/h (1 Bft)
29.08.2021 04:50 10,6 C 90 % 1016,7 hPa 0,2 mm W 279 3,2 km/h (1 Bft)
29.08.2021 04:55 10,5 C 90 % 1016,7 hPa 0,0 mm W 279 4,8 km/h (1 Bft)
29.08.2021 05:00 10,5 C 91 % 1016,7 hPa 0,2 mm W 279 6,4 km/h (2 Bft)
29.08.2021 05:05 10,5 C 91 % 1016,7 hPa 0,0 mm W 279 3,2 km/h (1 Bft)
29.08.2021 05:10 10,4 C 91 % 1016,7 hPa 0,0 mm W 279 3,2 km/h (1 Bft)
29.08.2021 05:15 10,4 C 91 % 1016,7 hPa 0,2 mm W 279 4,8 km/h (1 Bft)
29.08.2021 05:20 10,4 C 91 % 1016,6 hPa 0,0 mm W 262 9,7 km/h (2 Bft)
29.08.2021 05:25 10,4 C 91 % 1016,6 hPa 0,0 mm W 262 6,4 km/h (2 Bft)
29.08.2021 05:30 10,4 C 91 % 1016,5 hPa 0,0 mm W 262 4,8 km/h (1 Bft)
29.08.2021 05:35 10,4 C 91 % 1016,6 hPa 0,0 mm W 262 3,2 km/h (1 Bft)
29.08.2021 05:40 10,4 C 91 % 1016,6 hPa 0,0 mm W 262 4,8 km/h (1 Bft)
29.08.2021 05:45 10,4 C 91 % 1016,5 hPa 0,0 mm W 262 4,8 km/h (1 Bft)
29.08.2021 05:50 10,4 C 91 % 1016,5 hPa 0,0 mm W 262 4,8 km/h (1 Bft)
29.08.2021 05:55 10,4 C 91 % 1016,5 hPa 0,0 mm W 262 6,4 km/h (2 Bft)
29.08.2021 06:00 10,4 C 91 % 1016,5 hPa 0,0 mm W 262 4,8 km/h (1 Bft)
29.08.2021 06:05 10,4 C 91 % 1016,5 hPa 0,0 mm W 262 4,8 km/h (1 Bft)
29.08.2021 06:10 10,4 C 91 % 1016,5 hPa 0,0 mm W 262 6,4 km/h (2 Bft)
29.08.2021 06:15 10,4 C 91 % 1016,5 hPa 0,0 mm W 263 6,4 km/h (2 Bft)
29.08.2021 06:20 10,4 C 91 % 1016,5 hPa 0,0 mm W 274 6,4 km/h (2 Bft)
29.08.2021 06:25 10,4 C 91 % 1016,5 hPa 0,0 mm W 268 8,0 km/h (2 Bft)
29.08.2021 06:30 10,4 C 91 % 1016,5 hPa 0,0 mm W 272 9,7 km/h (2 Bft)
29.08.2021 06:35 10,4 C 91 % 1016,4 hPa 0,0 mm W-NW 284 8,0 km/h (2 Bft)
29.08.2021 06:40 10,3 C 91 % 1016,4 hPa 0,0 mm W 262 8,0 km/h (2 Bft)
29.08.2021 06:45 10,3 C 91 % 1016,5 hPa 0,0 mm W 261 8,0 km/h (2 Bft)
29.08.2021 06:50 10,3 C 91 % 1016,4 hPa 0,0 mm W 271 6,4 km/h (2 Bft)
29.08.2021 06:55 10,3 C 91 % 1016,4 hPa 0,0 mm W-NW 289 6,4 km/h (2 Bft)
29.08.2021 07:00 10,3 C 91 % 1016,3 hPa 0,0 mm W 279 6,4 km/h (2 Bft)
29.08.2021 07:05 10,3 C 91 % 1016,3 hPa 0,0 mm W 270 6,4 km/h (2 Bft)
29.08.2021 07:10 10,3 C 91 % 1016,3 hPa 0,0 mm W 270 4,8 km/h (1 Bft)
29.08.2021 07:15 10,3 C 91 % 1016,3 hPa 0,0 mm W 270 3,2 km/h (1 Bft)
29.08.2021 07:20 10,3 C 91 % 1016,4 hPa 0,0 mm W 270 4,8 km/h (1 Bft)
29.08.2021 07:25 10,3 C 91 % 1016,4 hPa 0,0 mm W 269 6,4 km/h (2 Bft)
29.08.2021 07:30 10,3 C 91 % 1016,4 hPa 0,2 mm W 269 6,4 km/h (2 Bft)
29.08.2021 07:35 10,3 C 91 % 1016,4 hPa 0,0 mm W 269 6,4 km/h (2 Bft)
29.08.2021 07:40 10,3 C 91 % 1016,5 hPa 0,0 mm W 263 11,3 km/h (2 Bft)
29.08.2021 07:45 10,2 C 91 % 1016,5 hPa 0,0 mm W 267 6,4 km/h (2 Bft)
29.08.2021 07:50 10,2 C 91 % 1016,4 hPa 0,0 mm W 279 8,0 km/h (2 Bft)
29.08.2021 07:55 10,2 C 91 % 1016,5 hPa 0,0 mm W 279 4,8 km/h (1 Bft)
29.08.2021 08:00 10,2 C 92 % 1016,5 hPa 0,2 mm W 277 8,0 km/h (2 Bft)
29.08.2021 08:05 10,2 C 92 % 1016,5 hPa 0,0 mm W 277 8,0 km/h (2 Bft)
29.08.2021 08:10 10,3 C 91 % 1016,5 hPa 0,0 mm W-SW 253 6,4 km/h (2 Bft)
29.08.2021 08:15 10,3 C 92 % 1016,5 hPa 0,0 mm W 263 6,4 km/h (2 Bft)
29.08.2021 08:20 10,3 C 92 % 1016,5 hPa 0,0 mm W 260 4,8 km/h (1 Bft)
29.08.2021 08:25 10,3 C 92 % 1016,5 hPa 0,0 mm W 260 3,2 km/h (1 Bft)
29.08.2021 08:30 10,4 C 92 % 1016,4 hPa 0,0 mm W 262 6,4 km/h (2 Bft)
29.08.2021 08:35 10,4 C 92 % 1016,3 hPa 0,0 mm W-NW 296 8,0 km/h (2 Bft)
29.08.2021 08:40 10,4 C 92 % 1016,4 hPa 0,0 mm W-SW 238 4,8 km/h (1 Bft)
29.08.2021 08:45 10,4 C 92 % 1016,4 hPa 0,0 mm W 271 8,0 km/h (2 Bft)
29.08.2021 08:50 10,4 C 92 % 1016,5 hPa 0,0 mm W 271 8,0 km/h (2 Bft)
29.08.2021 08:55 10,4 C 92 % 1016,5 hPa 0,0 mm W-NW 282 8,0 km/h (2 Bft)
29.08.2021 09:00 10,4 C 92 % 1016,6 hPa 0,0 mm W 259 8,0 km/h (2 Bft)
29.08.2021 09:05 10,4 C 92 % 1016,5 hPa 0,0 mm W 261 11,3 km/h (2 Bft)
29.08.2021 09:10 10,4 C 92 % 1016,4 hPa 0,0 mm W 266 11,3 km/h (2 Bft)
29.08.2021 09:15 10,5 C 92 % 1016,5 hPa 0,0 mm W-NW 286 9,7 km/h (2 Bft)
29.08.2021 09:20 10,5 C 92 % 1016,5 hPa 0,0 mm W-NW 282 8,0 km/h (2 Bft)
29.08.2021 09:25 10,6 C 92 % 1016,5 hPa 0,0 mm SW 236 6,4 km/h (2 Bft)
29.08.2021 09:30 10,6 C 92 % 1016,5 hPa 0,0 mm W 266 6,4 km/h (2 Bft)
29.08.2021 09:35 10,7 C 92 % 1016,5 hPa 0,0 mm W 267 6,4 km/h (2 Bft)
29.08.2021 09:40 10,7 C 92 % 1016,5 hPa 0,2 mm W 267 6,4 km/h (2 Bft)
29.08.2021 09:45 10,8 C 92 % 1016,5 hPa 0,0 mm W 268 6,4 km/h (2 Bft)
29.08.2021 09:50 10,8 C 92 % 1016,4 hPa 0,0 mm W 268 6,4 km/h (2 Bft)
29.08.2021 09:55 10,9 C 92 % 1016,5 hPa 0,0 mm W 268 9,7 km/h (2 Bft)
29.08.2021 10:00 10,9 C 92 % 1016,4 hPa 0,0 mm W 271 6,4 km/h (2 Bft)
29.08.2021 10:05 11,0 C 92 % 1016,4 hPa 0,0 mm W 265 8,0 km/h (2 Bft)
29.08.2021 10:10 11,1 C 92 % 1016,5 hPa 0,0 mm W 265 8,0 km/h (2 Bft)
29.08.2021 10:15 11,1 C 92 % 1016,5 hPa 0,0 mm W 269 8,0 km/h (2 Bft)
29.08.2021 10:20 11,2 C 92 % 1016,5 hPa 0,0 mm W 271 11,3 km/h (2 Bft)
29.08.2021 10:25 11,3 C 92 % 1016,5 hPa 0,0 mm W 269 4,8 km/h (1 Bft)
29.08.2021 10:30 11,3 C 92 % 1016,6 hPa 0,0 mm W 271 8,0 km/h (2 Bft)
29.08.2021 10:35 11,4 C 92 % 1016,6 hPa 0,0 mm W 263 8,0 km/h (2 Bft)
29.08.2021 10:40 11,4 C 92 % 1016,7 hPa 0,0 mm W 276 9,7 km/h (2 Bft)
29.08.2021 10:45 11,4 C 92 % 1016,5 hPa 0,0 mm W-NW 283 9,7 km/h (2 Bft)
29.08.2021 10:50 11,4 C 92 % 1016,5 hPa 0,0 mm W 264 6,4 km/h (2 Bft)
29.08.2021 10:55 11,4 C 92 % 1016,5 hPa 0,0 mm W 266 6,4 km/h (2 Bft)
29.08.2021 11:00 11,5 C 92 % 1016,5 hPa 0,0 mm W 276 9,7 km/h (2 Bft)
29.08.2021 11:05 11,5 C 91 % 1016,5 hPa 0,0 mm W-NW 282 9,7 km/h (2 Bft)
29.08.2021 11:10 11,5 C 91 % 1016,5 hPa 0,0 mm W 281 11,3 km/h (2 Bft)
29.08.2021 11:15 11,5 C 91 % 1016,6 hPa 0,0 mm W 274 8,0 km/h (2 Bft)
29.08.2021 11:20 11,6 C 92 % 1016,5 hPa 0,0 mm W 281 9,7 km/h (2 Bft)
29.08.2021 11:25 11,6 C 91 % 1016,6 hPa 0,0 mm W 266 9,7 km/h (2 Bft)
29.08.2021 11:30 11,6 C 91 % 1016,5 hPa 0,0 mm W-SW 258 11,3 km/h (2 Bft)
29.08.2021 11:35 11,6 C 91 % 1016,7 hPa 0,0 mm W 261 9,7 km/h (2 Bft)
29.08.2021 11:40 11,6 C 91 % 1016,5 hPa 0,0 mm W 279 9,7 km/h (2 Bft)
29.08.2021 11:45 11,7 C 91 % 1016,5 hPa 0,0 mm W 279 8,0 km/h (2 Bft)
29.08.2021 11:50 11,7 C 91 % 1016,5 hPa 0,0 mm W 277 11,3 km/h (2 Bft)
29.08.2021 11:55 11,7 C 90 % 1016,4 hPa 0,0 mm W 265 9,7 km/h (2 Bft)
29.08.2021 12:00 11,8 C 90 % 1016,5 hPa 0,0 mm W-SW 250 9,7 km/h (2 Bft)
29.08.2021 12:05 11,8 C 90 % 1016,5 hPa 0,0 mm W 259 8,0 km/h (2 Bft)
29.08.2021 12:10 11,9 C 90 % 1016,5 hPa 0,0 mm W-SW 252 8,0 km/h (2 Bft)
29.08.2021 12:15 12,0 C 90 % 1016,4 hPa 0,0 mm W 279 8,0 km/h (2 Bft)
29.08.2021 12:20 12,3 C 89 % 1016,4 hPa 0,0 mm W 267 9,7 km/h (2 Bft)
29.08.2021 12:25 12,6 C 87 % 1016,4 hPa 0,0 mm W 267 6,4 km/h (2 Bft)
29.08.2021 12:30 12,9 C 86 % 1016,3 hPa 0,0 mm W 279 9,7 km/h (2 Bft)
29.08.2021 12:35 13,4 C 85 % 1016,3 hPa 0,0 mm W-SW 249 11,3 km/h (2 Bft)
29.08.2021 12:40 13,6 C 82 % 1016,2 hPa 0,0 mm W 263 9,7 km/h (2 Bft)
29.08.2021 12:45 13,8 C 81 % 1016,2 hPa 0,0 mm W 271 8,0 km/h (2 Bft)
29.08.2021 12:50 14,0 C 81 % 1016,2 hPa 0,0 mm W 261 6,4 km/h (2 Bft)
29.08.2021 12:55 14,2 C 80 % 1016,2 hPa 0,0 mm W 263 9,7 km/h (2 Bft)
29.08.2021 13:00 14,2 C 79 % 1016,2 hPa 0,0 mm W-SW 250 12,9 km/h (3 Bft)
29.08.2021 13:05 14,2 C 80 % 1016,2 hPa 0,0 mm W 279 8,0 km/h (2 Bft)
29.08.2021 13:10 14,3 C 79 % 1016,2 hPa 0,0 mm W-NW 298 8,0 km/h (2 Bft)
29.08.2021 13:15 14,3 C 78 % 1016,2 hPa 0,0 mm W 271 12,9 km/h (3 Bft)
29.08.2021 13:20 14,9 C 81 % 1016,1 hPa 0,0 mm NW 313 6,4 km/h (2 Bft)
29.08.2021 13:25 15,2 C 76 % 1016,0 hPa 0,0 mm W-NW 282 12,9 km/h (3 Bft)
29.08.2021 13:30 14,9 C 77 % 1015,9 hPa 0,0 mm W 276 9,7 km/h (2 Bft)
29.08.2021 13:35 15,4 C 79 % 1015,9 hPa 0,0 mm W 277 12,9 km/h (3 Bft)
29.08.2021 13:40 15,8 C 79 % 1015,9 hPa 0,0 mm W 279 9,7 km/h (2 Bft)
29.08.2021 13:45 15,6 C 75 % 1015,8 hPa 0,0 mm W-NW 293 11,3 km/h (2 Bft)
29.08.2021 13:50 15,5 C 77 % 1015,7 hPa 0,0 mm W 277 11,3 km/h (2 Bft)
29.08.2021 13:55 15,8 C 77 % 1015,8 hPa 0,0 mm W 266 12,9 km/h (3 Bft)
29.08.2021 14:00 15,7 C 74 % 1015,8 hPa 0,0 mm W-NW 282 16,1 km/h (3 Bft)
29.08.2021 14:05 15,4 C 75 % 1015,9 hPa 0,0 mm W 281 12,9 km/h (3 Bft)
29.08.2021 14:10 15,3 C 76 % 1015,8 hPa 0,0 mm W 263 9,7 km/h (2 Bft)
29.08.2021 14:15 15,3 C 76 % 1015,8 hPa 0,0 mm W-NW 288 12,9 km/h (3 Bft)
29.08.2021 14:20 15,2 C 76 % 1015,8 hPa 0,0 mm W 273 8,0 km/h (2 Bft)
29.08.2021 14:25 15,1 C 76 % 1015,8 hPa 0,0 mm W-NW 284 14,5 km/h (3 Bft)
29.08.2021 14:30 15,1 C 76 % 1015,8 hPa 0,0 mm W-NW 288 9,7 km/h (2 Bft)
29.08.2021 14:35 15,1 C 76 % 1015,8 hPa 0,0 mm W 261 20,9 km/h (4 Bft)
29.08.2021 14:40 14,9 C 75 % 1015,9 hPa 0,0 mm W 279 17,7 km/h (3 Bft)
29.08.2021 14:45 14,8 C 76 % 1015,8 hPa 0,0 mm SW 232 14,5 km/h (3 Bft)
29.08.2021 14:50 14,7 C 77 % 1015,9 hPa 0,0 mm W 267 12,9 km/h (3 Bft)
29.08.2021 14:55 14,6 C 76 % 1015,8 hPa 0,0 mm W 277 17,7 km/h (3 Bft)
29.08.2021 15:00 14,4 C 77 % 1015,8 hPa 0,0 mm W 269 14,5 km/h (3 Bft)
29.08.2021 15:05 14,4 C 77 % 1015,8 hPa 0,0 mm W 270 16,1 km/h (3 Bft)
29.08.2021 15:10 14,5 C 79 % 1015,7 hPa 0,0 mm SW 221 12,9 km/h (3 Bft)
29.08.2021 15:15 14,6 C 78 % 1015,7 hPa 0,0 mm W-NW 290 12,9 km/h (3 Bft)
29.08.2021 15:20 14,7 C 78 % 1015,6 hPa 0,0 mm W 259 14,5 km/h (3 Bft)
29.08.2021 15:25 14,7 C 78 % 1015,5 hPa 0,0 mm W 270 16,1 km/h (3 Bft)
29.08.2021 15:30 14,8 C 78 % 1015,5 hPa 0,0 mm W 260 14,5 km/h (3 Bft)
29.08.2021 15:35 14,8 C 77 % 1015,5 hPa 0,0 mm W-SW 250 12,9 km/h (3 Bft)
29.08.2021 15:40 14,8 C 76 % 1015,5 hPa 0,0 mm NW 305 11,3 km/h (2 Bft)
29.08.2021 15:45 14,8 C 75 % 1015,4 hPa 0,0 mm W 262 12,9 km/h (3 Bft)
29.08.2021 15:50 14,9 C 76 % 1015,4 hPa 0,0 mm W 273 12,9 km/h (3 Bft)
29.08.2021 15:55 14,9 C 74 % 1015,3 hPa 0,0 mm W 280 16,1 km/h (3 Bft)
29.08.2021 16:00 14,9 C 74 % 1015,4 hPa 0,0 mm W 266 11,3 km/h (2 Bft)
29.08.2021 16:05 14,8 C 74 % 1015,4 hPa 0,0 mm W-SW 258 14,5 km/h (3 Bft)
29.08.2021 16:10 14,9 C 76 % 1015,4 hPa 0,0 mm W 278 9,7 km/h (2 Bft)
29.08.2021 16:15 14,8 C 76 % 1015,4 hPa 0,0 mm W 266 12,9 km/h (3 Bft)
29.08.2021 16:20 14,7 C 75 % 1015,4 hPa 0,0 mm W 272 12,9 km/h (3 Bft)
29.08.2021 16:25 14,7 C 76 % 1015,4 hPa 0,0 mm W-NW 284 11,3 km/h (2 Bft)
29.08.2021 16:30 14,7 C 77 % 1015,3 hPa 0,0 mm W 271 8,0 km/h (2 Bft)
29.08.2021 16:35 14,7 C 77 % 1015,3 hPa 0,0 mm W 277 9,7 km/h (2 Bft)
29.08.2021 16:40 14,7 C 77 % 1015,3 hPa 0,0 mm W 269 9,7 km/h (2 Bft)
29.08.2021 16:45 14,7 C 76 % 1015,3 hPa 0,0 mm W-SW 258 9,7 km/h (2 Bft)
29.08.2021 16:50 14,7 C 75 % 1015,3 hPa 0,0 mm W 278 11,3 km/h (2 Bft)
29.08.2021 16:55 14,7 C 75 % 1015,3 hPa 0,0 mm W 268 12,9 km/h (3 Bft)
29.08.2021 17:00 14,7 C 75 % 1015,4 hPa 0,0 mm W 270 16,1 km/h (3 Bft)
29.08.2021 17:05 14,8 C 75 % 1015,4 hPa 0,0 mm W 276 9,7 km/h (2 Bft)
29.08.2021 17:10 14,7 C 75 % 1015,5 hPa 0,0 mm W 273 9,7 km/h (2 Bft)
29.08.2021 17:15 14,8 C 75 % 1015,5 hPa 0,0 mm W 259 6,4 km/h (2 Bft)
29.08.2021 17:20 14,8 C 75 % 1015,4 hPa 0,0 mm W 270 11,3 km/h (2 Bft)
29.08.2021 17:25 14,8 C 76 % 1015,5 hPa 0,0 mm W 264 9,7 km/h (2 Bft)
29.08.2021 17:30 14,8 C 76 % 1015,5 hPa 0,0 mm W 264 6,4 km/h (2 Bft)
29.08.2021 17:35 14,7 C 77 % 1015,5 hPa 0,0 mm W 264 3,2 km/h (1 Bft)
29.08.2021 17:40 14,7 C 78 % 1015,6 hPa 0,0 mm W 264 6,4 km/h (2 Bft)
29.08.2021 17:45 14,6 C 78 % 1015,5 hPa 0,0 mm W 264 6,4 km/h (2 Bft)
29.08.2021 17:50 14,6 C 78 % 1015,5 hPa 0,0 mm W 264 4,8 km/h (1 Bft)
29.08.2021 17:55 14,4 C 79 % 1015,4 hPa 0,0 mm W 264 4,8 km/h (1 Bft)
29.08.2021 18:00 14,3 C 79 % 1015,4 hPa 0,0 mm W 264 6,4 km/h (2 Bft)
29.08.2021 18:05 14,3 C 80 % 1015,5 hPa 0,0 mm W 264 4,8 km/h (1 Bft)
29.08.2021 18:10 14,2 C 80 % 1015,6 hPa 0,0 mm W 264 3,2 km/h (1 Bft)
29.08.2021 18:15 14,1 C 80 % 1015,4 hPa 0,0 mm W 264 1,6 km/h (1 Bft)
29.08.2021 18:20 14,0 C 81 % 1015,5 hPa 0,0 mm W 264 0,0 km/h (0 Bft)
29.08.2021 18:25 13,9 C 81 % 1015,4 hPa 0,0 mm W 264 0,0 km/h (0 Bft)
29.08.2021 18:30 13,8 C 81 % 1015,5 hPa 0,0 mm W 264 0,0 km/h (0 Bft)
29.08.2021 18:35 13,7 C 82 % 1015,5 hPa 0,0 mm W 264 0,0 km/h (0 Bft)
29.08.2021 18:40 13,6 C 82 % 1015,5 hPa 0,0 mm W 264 1,6 km/h (1 Bft)
29.08.2021 18:45 13,5 C 82 % 1015,6 hPa 0,0 mm W 264 0,0 km/h (0 Bft)
29.08.2021 18:50 13,4 C 82 % 1015,6 hPa 0,0 mm W 264 0,0 km/h (0 Bft)
29.08.2021 18:55 13,3 C 83 % 1015,5 hPa 0,2 mm W 264 1,6 km/h (1 Bft)
29.08.2021 19:00 13,2 C 83 % 1015,5 hPa 0,0 mm W 264 0,0 km/h (0 Bft)
29.08.2021 19:05 13,1 C 83 % 1015,5 hPa 0,2 mm W 264 0,0 km/h (0 Bft)
29.08.2021 19:10 12,9 C 83 % 1015,5 hPa 0,0 mm W 264 0,0 km/h (0 Bft)
29.08.2021 19:15 12,9 C 84 % 1015,5 hPa 0,0 mm W 264 0,0 km/h (0 Bft)
29.08.2021 19:20 12,8 C 84 % 1015,5 hPa 0,2 mm W 264 0,0 km/h (0 Bft)
29.08.2021 19:25 12,7 C 85 % 1015,6 hPa 0,0 mm W 264 0,0 km/h (0 Bft)
29.08.2021 19:30 12,6 C 85 % 1015,5 hPa 0,0 mm W 264 0,0 km/h (0 Bft)
29.08.2021 19:35 12,6 C 85 % 1015,6 hPa 0,2 mm W 264 1,6 km/h (1 Bft)
29.08.2021 19:40 12,5 C 85 % 1015,5 hPa 0,0 mm W 264 0,0 km/h (0 Bft)
29.08.2021 19:45 12,4 C 85 % 1015,6 hPa 0,0 mm W 264 0,0 km/h (0 Bft)
29.08.2021 19:50 12,4 C 85 % 1015,6 hPa 0,2 mm W 264 0,0 km/h (0 Bft)
29.08.2021 19:55 12,3 C 85 % 1015,6 hPa 0,0 mm W 264 0,0 km/h (0 Bft)
29.08.2021 20:00 12,2 C 86 % 1015,7 hPa 0,0 mm W 264 0,0 km/h (0 Bft)
29.08.2021 20:05 12,2 C 86 % 1015,7 hPa 0,2 mm W 264 0,0 km/h (0 Bft)
29.08.2021 20:10 12,1 C 86 % 1015,7 hPa 0,0 mm W 264 0,0 km/h (0 Bft)
29.08.2021 20:15 12,1 C 86 % 1015,8 hPa 0,0 mm W 264 0,0 km/h (0 Bft)
29.08.2021 20:20 12,1 C 86 % 1015,8 hPa 0,0 mm W 264 0,0 km/h (0 Bft)
29.08.2021 20:25 12,0 C 86 % 1015,8 hPa 0,0 mm W 264 0,0 km/h (0 Bft)
29.08.2021 20:30 11,9 C 87 % 1015,8 hPa 0,2 mm W 264 0,0 km/h (0 Bft)
29.08.2021 20:35 11,9 C 87 % 1015,8 hPa 0,0 mm W 264 0,0 km/h (0 Bft)
29.08.2021 20:40 11,9 C 87 % 1015,8 hPa 0,0 mm W 264 0,0 km/h (0 Bft)
29.08.2021 20:45 11,8 C 87 % 1015,8 hPa 0,0 mm W 264 0,0 km/h (0 Bft)
29.08.2021 20:50 11,8 C 87 % 1015,9 hPa 0,0 mm W 264 1,6 km/h (1 Bft)
29.08.2021 20:55 11,8 C 87 % 1015,9 hPa 0,0 mm W 264 1,6 km/h (1 Bft)
29.08.2021 21:00 11,7 C 87 % 1015,8 hPa 0,0 mm W 264 0,0 km/h (0 Bft)
29.08.2021 21:05 11,7 C 88 % 1015,8 hPa 0,0 mm W 264 1,6 km/h (1 Bft)
29.08.2021 21:10 11,7 C 88 % 1015,8 hPa 0,0 mm W 264 0,0 km/h (0 Bft)
29.08.2021 21:15 11,7 C 88 % 1015,8 hPa 0,0 mm W 264 0,0 km/h (0 Bft)
29.08.2021 21:20 11,6 C 88 % 1015,8 hPa 0,0 mm W 264 0,0 km/h (0 Bft)
29.08.2021 21:25 11,6 C 88 % 1015,8 hPa 0,0 mm W 264 0,0 km/h (0 Bft)
29.08.2021 21:30 11,6 C 88 % 1015,7 hPa 0,0 mm W 264 1,6 km/h (1 Bft)
29.08.2021 21:35 11,6 C 88 % 1015,7 hPa 0,0 mm W 264 1,6 km/h (1 Bft)
29.08.2021 21:40 11,5 C 88 % 1015,7 hPa 0,0 mm W 264 0,0 km/h (0 Bft)
29.08.2021 21:45 11,4 C 88 % 1015,7 hPa 0,0 mm W 264 0,0 km/h (0 Bft)
29.08.2021 21:50 11,4 C 89 % 1015,7 hPa 0,0 mm W 264 0,0 km/h (0 Bft)
29.08.2021 21:55 11,4 C 89 % 1015,6 hPa 0,0 mm W 264 0,0 km/h (0 Bft)
29.08.2021 22:00 11,3 C 88 % 1015,5 hPa 0,0 mm W 264 0,0 km/h (0 Bft)
29.08.2021 22:05 11,3 C 89 % 1015,5 hPa 0,0 mm W 264 0,0 km/h (0 Bft)
29.08.2021 22:10 11,3 C 89 % 1015,4 hPa 0,0 mm W 264 0,0 km/h (0 Bft)
29.08.2021 22:15 11,2 C 89 % 1015,5 hPa 0,0 mm W 264 0,0 km/h (0 Bft)
29.08.2021 22:20 11,2 C 89 % 1015,5 hPa 0,0 mm W 264 0,0 km/h (0 Bft)
29.08.2021 22:25 11,2 C 89 % 1015,5 hPa 0,0 mm W 264 0,0 km/h (0 Bft)
29.08.2021 22:30 11,1 C 89 % 1015,5 hPa 0,0 mm W 264 0,0 km/h (0 Bft)
29.08.2021 22:35 11,1 C 89 % 1015,4 hPa 0,0 mm W 264 0,0 km/h (0 Bft)
29.08.2021 22:40 11,1 C 89 % 1015,4 hPa 0,0 mm W 264 0,0 km/h (0 Bft)
29.08.2021 22:45 11,0 C 89 % 1015,3 hPa 0,0 mm W 264 0,0 km/h (0 Bft)
29.08.2021 22:50 10,9 C 89 % 1015,3 hPa 0,0 mm W 264 0,0 km/h (0 Bft)
29.08.2021 22:55 10,9 C 89 % 1015,3 hPa 0,0 mm W 264 1,6 km/h (1 Bft)
29.08.2021 23:00 10,8 C 89 % 1015,3 hPa 0,0 mm W 264 0,0 km/h (0 Bft)
29.08.2021 23:05 10,8 C 89 % 1015,4 hPa 0,0 mm W 264 0,0 km/h (0 Bft)
29.08.2021 23:10 10,8 C 89 % 1015,3 hPa 0,0 mm W 264 0,0 km/h (0 Bft)
29.08.2021 23:15 10,7 C 89 % 1015,4 hPa 0,0 mm W 264 0,0 km/h (0 Bft)
29.08.2021 23:20 10,7 C 89 % 1015,3 hPa 0,2 mm W 264 0,0 km/h (0 Bft)
29.08.2021 23:25 10,6 C 90 % 1015,3 hPa 0,0 mm W 264 0,0 km/h (0 Bft)
29.08.2021 23:30 10,5 C 90 % 1015,3 hPa 0,0 mm W 264 0,0 km/h (0 Bft)
29.08.2021 23:35 10,4 C 90 % 1015,3 hPa 0,0 mm W 264 0,0 km/h (0 Bft)
29.08.2021 23:40 10,4 C 89 % 1015,2 hPa 0,0 mm W 264 0,0 km/h (0 Bft)
29.08.2021 23:45 10,3 C 90 % 1015,2 hPa 0,0 mm W 264 3,2 km/h (1 Bft)
29.08.2021 23:50 10,3 C 90 % 1015,2 hPa 0,0 mm W 264 1,6 km/h (1 Bft)
29.08.2021 23:55 10,3 C 90 % 1015,2 hPa 0,0 mm W 264 0,0 km/h (0 Bft)
_ Min-Zeit 07:45 14:00 23:40 - - - 00:15
Minimum _ 10,2 C 74 % 1015,2 hPa - - - 0,0 km/h (0 Bft)
_ Max-Zeit 13:40 08:00 00:00 04:05 - - 14:35
Maximum _ 15,8 C 92 % 1017,7 hPa 0,2 mm - - 20,9 km/h
W (4 Bft)
Durchschnitt _ 12,0 C 87 % 1016,2 hPa #3,6 mm W - 5,7 km/h (1 Bft)